#timestamp,LO_Frequency,Hit,StdDev 
1522882815.2,286046998.0,N
1522882835.1,286046996.5,N
1522882836.0,286046996.5,N
1522882855.8,286046997.3,N
1522882875.7,286046996.0,N
1522882895.5,286046996.7,N
1522882915.3,286046999.6,N
1522882935.2,286046999.4,N
1522882955.0,286046996.9,N
1522882955.9,286046996.9,N
1522882975.7,286046996.6,N
1522882995.6,286046996.7,N
1522883015.4,286046996.8,N
1522883035.3,286046997.1,N
1522883055.1,286046997.2,N
1522883056.0,286046997.2,N
1522883075.8,286046997.1,N
1522883095.7,286046994.9,Y
1522883115.5,286047001.2,P
1522883135.3,286047001.2,N
1522883155.2,286046999.9,N
1522883175.0,286047002.3,N
1522883175.9,286047002.3,N
1522883195.8,286047002.0,N
1522883215.6,286046999.9,N
1522883235.4,286047002.3,N
1522883255.3,286047001.6,N
1522883275.1,286047001.6,N
1522883295.8,286047001.3,N
1522883315.7,286047002.6,N
1522883335.5,286047001.8,N
1522883355.4,286047004.0,N
1522883375.2,286047001.6,N
1522883395.0,286047000.2,N
1522883395.9,286047000.2,N
1522883415.8,286047002.8,N
1522883435.6,286047002.7,N
1522883455.4,286047001.0,N
1522883475.3,286046998.7,N
1522883495.1,286046998.8,N
1522883515.9,286046999.4,N
1522883535.7,286047001.0,N
1522883555.5,286047001.0,N
1522883575.4,286046998.9,N
1522883595.2,286046999.9,N
1522883615.0,286046999.9,N
1522883615.9,286046999.9,N
1522883635.8,286047000.4,N
1522883655.6,286047001.0,N
1522883675.5,286047000.2,N
1522883695.3,286047000.8,N
1522883715.1,286046999.9,N
1522883735.9,286046999.8,N
1522883755.7,286047000.3,N
1522883775.5,286047002.4,N
1522883795.4,286047001.9,N
1522883815.2,286047004.2,Y
1522883835.1,286047002.8,P
1522883836.0,286047002.8,N
1522883855.8,286047000.2,N
1522883875.6,286047011.9,Y
1522883895.5,286046998.4,P
1522883915.3,286046998.1,N
1522883935.1,286047004.0,N
1522883955.9,286047004.4,N
1522883975.7,286047000.2,N
1522883995.6,286047000.8,N
1522884015.4,286046998.8,N
1522884035.2,286046998.5,N
1522884055.1,286046998.8,N
1522884056.0,286046998.8,N
1522884075.8,286046999.9,N
1522884095.6,286047000.9,N
1522884115.5,286046999.9,N
1522884135.3,286047000.4,N
1522884155.2,286046998.7,N
1522884175.9,286046998.4,N
1522884195.7,286046998.2,N
1522884215.6,286047001.1,N
1522884235.4,286046998.5,N
1522884255.2,286046998.4,N
1522884275.1,286047000.2,N
1522884276.0,286047000.2,N
1522884295.8,286047000.8,N
1522884315.7,286046998.3,N
1522884335.5,286046998.2,N
1522884355.3,286046999.9,N
1522884375.2,286047000.6,N
1522884395.0,286047000.3,N
1522884395.9,286047000.3,N
1522884415.8,286047000.5,N
1522884435.6,286047000.0,N
1522884455.4,286047002.3,N
1522884475.3,286047002.7,N
1522884495.1,286047002.8,N
1522884496.0,286047002.8,N
1522884515.8,286046998.3,N
1522884535.7,286047000.6,N
1522884555.5,286047001.2,N
1522884575.3,286047000.9,N
1522884595.2,286046998.1,N
1522884615.0,286046998.1,N
1522884615.9,286046998.1,N
1522884635.8,286047000.9,N
1522884655.6,286047000.7,N
1522884675.4,286047002.2,N
1522884695.3,286047002.0,N
1522884715.1,286047001.5,N
1522884735.8,286047002.4,N
1522884755.7,286047002.2,N
1522884775.5,286047000.6,N
1522884795.4,286047002.3,N
1522884815.2,286046999.8,N
1522884835.0,286046999.8,N
1522884835.9,286046999.8,N
1522884855.8,286047001.9,N
1522884875.6,286047004.0,N
1522884895.4,286047003.7,N
1522884915.3,286047001.5,N
1522884935.1,286047004.3,N
1522884955.9,286047001.7,N
1522884975.7,286047002.5,N
1522884995.5,286046999.8,N
1522885015.4,286046999.9,N
1522885035.2,286047002.5,N
1522885055.0,286047003.8,N
1522885055.9,286047003.8,N
1522885075.8,286047003.0,N
1522885095.6,286047003.0,N
1522885115.5,286047002.9,N
1522885135.3,286047001.7,N
1522885155.1,286047004.2,N
1522885175.9,286047003.9,N
1522885195.7,286047005.3,Y
1522885215.5,286047003.5,P
1522885235.4,286047003.8,P
1522885255.2,286047004.2,P
1522885275.1,286047004.3,Y
1522885276.0,286047004.3,P
1522885295.8,286046998.8,N
1522885315.6,286046998.4,N
1522885335.5,286046998.6,N
1522885355.3,286046997.1,N
1522885375.1,286046998.3,N
1522885395.9,286046999.8,N
1522885415.7,286047003.0,N
1522885435.6,286047001.6,N
1522885455.4,286047002.1,N
1522885475.2,286047002.4,N
1522885495.1,286047000.3,N
1522885496.0,286047000.3,N
1522885515.8,286047002.7,N
1522885535.6,286047001.9,N
1522885555.5,286047001.6,N
1522885575.3,286047003.9,N
1522885595.2,286047005.6,N
1522885615.9,286047005.8,N
1522885635.7,286047003.2,N
1522885655.6,286047003.0,N
1522885675.4,286047004.5,N
1522885695.2,286047003.2,N
1522885715.1,286047004.1,N
1522885716.0,286047004.1,N
1522885735.8,286047004.3,N
1522885755.7,286046999.8,N
1522885775.5,286047000.1,N
1522885795.3,286047000.9,N
1522885815.2,286047000.7,N
1522885835.0,286047000.2,N
1522885835.9,286047000.2,N
1522885855.7,286046999.7,N
1522885875.6,286047001.1,N
1522885895.4,286047000.8,N
1522885915.3,286046998.3,N
1522885935.1,286046999.9,N
1522885936.0,286046999.9,N
1522885955.8,286047000.0,N
1522885975.7,286046998.1,N
1522885995.5,286046998.1,N
1522886015.3,286047000.5,N
1522886035.2,286047002.5,N
1522886055.0,286047003.2,N
1522886055.9,286047003.2,N
1522886075.8,286047005.2,N
1522886095.6,286047002.9,N
1522886115.4,286047007.4,Y
1522886135.3,286047005.0,P
1522886155.1,286047005.3,P
1522886175.9,286047003.6,N
1522886195.7,286047006.0,Y
1522886215.5,286047001.0,P
1522886235.4,286046999.2,N
1522886255.2,286046997.2,N
1522886275.0,286046996.7,N
1522886275.9,286046996.7,N
1522886295.8,286046999.4,N
1522886315.6,286047000.3,N
1522886335.5,286047002.7,N
1522886355.3,286046998.9,N
1522886375.1,286046998.6,N
1522886395.9,286046999.2,N
